User: anonymous
Location: Mentone
(34.5413°N, 85.5351°W)
Time: 19:45:40
(UTC-05:00)
Language:

Okean O Rocket - Orbit

View from above orbital plane
View from above orbital plane
View from above satellite
View from above satellite

Ground track
Ground track

The orbit data is extracted from the following two-line orbital elements,

1 25861U 99039B   14114.87897200  .00000546  00000-0  83369-4 0  6067
2 25861 097.9444 074.5833 0016110 182.8986 235.4939 14.77664488795991
Epoch (UTC): 24 April 2014 21:05:43
Eccentricity: 0.0016110
inclination: 97.9444°
perigee height: 625 km
apogee height: 648 km
right ascension of ascending node: 74.5833°
argument of perigee: 182.8986°
revolutions per day: 14.77664488
mean anomaly at epoch: 235.4939°
orbit number at epoch: 79599

The dashed part of the orbit path shows where the satellite is in the earth's shadow,  

DLR